GFSGBSN_850_dewp_225.txt.gz
Dewpoint
8 8 8 8 10 10 10 10 10 10 10 10 10 10 10 9 8 8 8 8 8 8 9 9 9 9 10 9 9 7 4 4 4 7 6 6 5 4 3 3 4 3 2 2 2 2 1
9 8 9 10 10 10 10 10 10 10 10 9 9 9 8 8 8 8 8 8 8 8 8 9 10 10 10 9 8 8 7 7 7 7 7 8 6 5 2 2 3 3 3 2 3 3 3
9 10 11 10 10 10 10 10 9 9 9 8 8 8 8 7 7 7 7 7 7 8 8 8 9 9 9 9 8 8 9 8 8 8 7 6 7 6 5 4 3 4 5 4 4 5 4
11 11 10 10 9 9 9 8 8 7 7 6 5 4 3 3 3 3 3 3 4 4 5 6 7 8 7 8 8 8 8 8 8 8 8 7 6 7 8 7 7 7 6 9 6 5 4
10 10 9 9 8 8 7 6 5 3 2 1 -0 -1 -3 -4 -4 -4 -4 -3 -1 1 2 3 3 4 6 7 7 7 7 7 6 6 8 8 8 7 8 9 10 9 11 9 8 6 5
9 8 8 8 7 5 3 2 1 -4 -11 -16 -19 -19 -19 -20 -21 -20 -20 -22 -26 -18 -4 2 3 5 5 6 7 6 6 6 8 8 9 9 9 9 9 11 12 11 11 10 9 6 6
8 7 5 3 2 0 -7 -18 -20 -20 -20 -19 -19 -21 -22 -23 -22 -20 -21 -14 -3 1 5 5 5 4 3 4 4 5 6 7 8 9 10 9 11 11 10 9 9 9 9 9 8 6 7
4 1 -3 -12 -21 -22 -20 -20 -21 -22 -22 -23 -23 -23 -23 -24 -25 -18 -1 0 -0 0 1 -4 -4 -1 1 3 3 4 5 8 9 9 9 10 11 9 9 8 9 10 11 10 8 6 8
-11 -20 -21 -20 -21 -23 -23 -23 -23 -22 -23 -23 -23 -22 -23 -24 -21 0 -2 -1 -0 -1 1 -2 -3 -2 -5 -5 -2 2 3 5 8 9 9 9 8 8 10 9 10 10 11 10 10 7 7
-19 -20 -22 -25 -27 -26 -26 -27 -28 -28 -27 -24 -20 -17 -13 -18 -3 -7 0 0 -1 -2 -0 -3 -8 -6 -2 -2 -1 -2 0 3 5 8 8 9 7 9 10 10 10 12 9 9 9 10 12
-23 -26 -27 -27 -27 -26 -22 -19 -19 -19 -12 -10 -11 -15 -19 -3 -4 -4 -1 -2 -2 -2 -0 -9 -11 -7 -6 0 2 2 1 0 4 5 6 6 6 6 9 8 8 10 8 10 10 10 10
-25 -24 -22 -20 -20 -18 -18 -18 -15 -12 -10 -10 -10 -10 -10 -6 -3 -1 -2 -5 -4 -1 -3 -8 -13 -8 -7 -8 -5 2 2 3 4 4 4 6 3 4 6 6 8 8 8 8 10 11 13
-20 -17 -16 -17 -16 -12 -9 -9 -9 -9 -10 -9 -8 -7 -7 -4 -7 -4 -5 -4 -4 -3 -8 -11 -11 -7 -7 -0 1 -1 1 5 5 7 6 5 6 4 4 7 5 8 8 9 10 10 12
-17 -16 -14 -11 -9 -8 -9 -10 -13 -13 -11 -10 -9 -7 -5 -3 -2 -1 -3 -3 -3 -7 -10 -12 -10 -9 -5 -6 -4 -2 -1 2 3 3 5 7 8 5 4 6 7 8 9 10 11 12 11
-11 -10 -8 -7 -8 -11 -14 -18 -19 -18 -14 -13 -17 -12 -4 -2 -1 -2 -3 -5 -6 -6 -7 -4 -4 -5 -5 -8 -5 -3 -1 4 3 2 4 4 5 3 3 4 6 8 9 8 9 9 10
-9 -8 -10 -14 -16 -17 -17 -17 -17 -18 -18 -17 -7 -3 -2 -0 -2 -2 -4 -4 -4 -6 -6 -2 -1 -6 -4 -6 -5 -3 -1 2 3 2 1 3 4 4 3 4 4 5 6 10 9 11 11
-10 -13 -15 -16 -16 -17 -17 -18 -19 -17 -12 -3 -3 -1 -3 -1 -2 -2 -5 -5 -5 -8 -8 -5 -3 -3 -5 -5 -3 -2 -3 -2 2 2 2 3 4 2 4 5 5 5 5 5 5 8 10
-13 -13 -15 -15 -16 -17 -18 -19 -14 -11 -9 -2 -2 -3 -2 -1 -2 -2 -4 -4 -7 -6 -10 -5 -6 -5 -4 -4 -3 -2 -2 -0 -0 -2 1 2 4 4 4 4 4 4 5 5 6 6 6
-14 -14 -14 -16 -17 -17 -17 -14 -9 -7 -8 -3 -2 -3 -3 -4 -5 -5 -4 -5 -6 -7 -8 -8 -5 -3 -3 -3 -2 -2 -2 -4 -0 1 0 1 3 2 3 5 3 5 5 5 4 5 6
-13 -14 -17 -17 -16 -14 -14 -11 -9 -9 -9 -3 -2 -4 -4 -3 -4 -4 -4 -5 -5 -8 -8 -9 -7 -4 -3 -2 -4 -2 -2 -1 -1 1 -0 0 3 3 3 3 0 2 5 5 4 5 5
-15 -16 -15 -14 -12 -10 -8 -8 -11 -9 -9 -2 -3 -4 -4 -5 -4 -4 -5 -4 -4 -4 -4 -7 -5 -6 -3 -1 -1 -3 -3 -2 -2 1 -3 0 0 -0 -1 -2 -2 -1 1 4 4 4 5
-14 -12 -12 -8 -4 -4 -8 -10 -6 -6 -5 -3 -3 -2 -3 -3 -5 -5 -4 -4 -3 -4 -4 -4 -6 -6 -4 -3 -1 -0 -1 -3 -2 -6 -6 -4 -2 -3 -3 -5 -5 -1 -3 -5 -2 2 2
-11 -8 -5 -5 -6 -9 -7 -6 -6 -6 -4 -2 -1 -3 -2 -4 -4 -4 -4 -5 -5 -4 -5 -7 -7 -5 -5 -5 -5 -5 -5 -4 -4 -3 -5 -6 -4 -2 -2 -6 -5 -3 -2 -3 -5 -3 0
-3 -5 -7 -8 -7 -7 -6 -5 -5 -6 -5 -2 -2 -2 -2 -5 -4 -4 -4 -4 -4 -5 -4 -7 -8 -6 -9 -10 -8 -7 -6 -6 -7 -7 -8 -4 -5 -3 -2 -3 -5 -6 -8 -9 -6 -6 -5
-4 -6 -6 -6 -6 -6 -6 -6 -5 -5 -6 -4 -1 -2 -3 -4 -4 -4 -5 -3 -4 -5 -4 -5 -5 -4 -6 -7 -4 -3 -5 -6 -8 -8 -9 -9 -3 -3 -3 -1 -4 -6 -5 -4 -4 -4 -7
-5 -5 -6 -7 -7 -8 -9 -9 -8 -8 -9 -7 -3 -2 -2 -3 -4 -5 -3 -4 -3 -3 -4 -3 -5 -5 -6 -2 -3 -3 -3 -5 -6 -6 -6 -4 -3 -3 -3 -2 -2 2 -2 -7 -6 0 -5
-11 -11 -12 -12 -13 -14 -14 -14 -13 -10 -9 -7 -2 -1 -2 -2 -4 -4 -3 -2 -4 -4 -3 -2 -3 -5 -5 -1 -2 -1 -2 -5 -3 -5 -5 -3 -1 -4 -4 -3 -3 -2 -4 -6 -3 1 -4
-10 -11 -11 -12 -13 -14 -14 -15 -16 -17 -11 -12 -7 -4 -3 -3 -4 -5 -4 -4 -2 -2 -3 -3 -4 -4 -3 -5 -4 -2 -0 -1 -1 -3 -2 -3 -2 -1 0 -1 -0 -2 -3 0 1 -2 -7
-9 -9 -10 -11 -13 -13 -14 -14 -16 -16 -16 -11 -4 -3 -2 -2 -4 -6 -5 -4 -2 -2 -2 -3 -3 -3 -2 -5 -4 -2 -0 0 0 0 -1 1 0 -1 -2 -1 -1 -1 -4 -6 -6 -7 -7

GFSGBSN_850_dewp_231.txt.gz
Dewpoint
-3 -2 -1 1 2 2 1 2 5 7 8 8 9 10 10 10 9 9 9 9 9 8 8 7 7 7 7 8 9 7 7 6 6 6 7 7 7 5 5 3 2 5 4 3 3 3 3
-2 1 3 3 2 1 5 7 7 8 9 9 9 9 10 10 9 9 9 8 8 7 6 5 5 5 5 7 7 8 7 7 7 7 8 8 8 7 5 5 4 2 2 2 1 1 1
1 2 2 2 2 6 7 7 8 9 10 10 10 9 9 8 8 6 5 4 2 2 -2 -2 -0 2 3 4 4 5 6 7 7 7 8 8 8 8 7 6 5 5 6 5 4 3 1
2 3 2 2 5 8 8 9 10 10 10 10 9 8 7 6 3 -2 -10 -16 -18 -27 -26 -26 -24 -6 3 -1 3 0 2 5 6 7 8 9 8 9 8 8 8 9 8 10 6 5 3
2 3 4 8 9 9 10 10 10 10 9 8 7 4 2 -11 -21 -25 -26 -29 -30 -29 -28 -26 -23 -15 0 -3 4 7 7 4 3 6 8 8 8 9 9 10 10 10 10 9 9 6 5
4 6 8 9 9 9 10 9 8 8 7 5 -1 -5 -16 -26 -29 -30 -31 -30 -22 -10 -5 -8 -1 -0 -8 -3 2 0 -4 -7 -1 1 0 7 8 9 9 10 11 9 10 9 8 6 6
7 9 9 9 9 9 9 7 7 5 -1 -5 -17 -27 -30 -31 -32 -30 -22 -23 -13 -7 -6 -2 -0 1 -2 -9 -7 -7 -4 -5 -6 -5 -1 -2 6 8 6 7 8 8 9 8 7 5 7
7 9 9 9 9 8 7 5 -3 -8 -19 -27 -30 -32 -32 -32 -30 -12 -11 -4 -2 -3 -1 -12 -7 -8 -9 -6 -4 -4 -3 -3 -1 1 -0 1 -0 -2 1 5 6 7 8 9 8 6 7
9 9 8 8 8 7 5 -1 -7 -20 -29 -31 -30 -29 -28 -25 -12 -13 -5 -3 -4 -2 -3 -9 -8 -6 -9 -5 -3 -3 -7 -0 1 3 2 3 1 -2 -4 -2 4 7 8 8 8 7 7
8 8 8 7 6 1 -5 -14 -26 -31 -27 -24 -22 -21 -21 -14 -10 -5 -5 -3 -4 -2 -9 -13 -7 -5 -9 -10 -4 -7 -12 -4 -1 2 2 3 2 1 1 -1 -3 5 5 7 7 8 10
7 6 7 5 -5 -9 -19 -29 -27 -23 -20 -21 -19 -18 -15 -14 -8 -4 -3 -4 -5 -3 -19 -18 -10 -10 -8 -8 -9 -9 -12 -8 -3 -3 1 1 1 2 4 3 -4 -2 3 6 7 7 7
6 5 0 -3 -9 -22 -28 -26 -21 -20 -19 -18 -18 -16 -12 -11 -5 -5 -5 -7 -6 -10 -24 -9 -10 -7 -7 -7 -8 -9 -9 -9 -8 2 2 1 -5 -1 4 1 3 -0 -1 3 6 6 8
2 -2 -12 -20 -26 -24 -24 -20 -19 -18 -21 -19 -19 -11 -5 -8 -6 -9 -10 -7 -9 -12 -12 -8 -5 -6 -5 -4 -7 -7 -5 -5 -4 1 -1 -2 -2 0 0 2 3 4 3 5 7 7 8
-4 -14 -23 -23 -21 -22 -20 -18 -18 -21 -22 -21 -19 -7 -4 -4 -4 -8 -9 -8 -12 -11 -8 -7 -6 -6 -3 -5 -6 -5 -5 -5 -1 1 1 1 -1 1 0 3 4 5 3 3 7 7 7
-23 -23 -20 -19 -17 -17 -19 -21 -22 -23 -22 -17 -10 -5 -8 -6 -6 -8 -9 -8 -9 -7 -6 -4 -5 -4 -5 -6 -4 -4 -5 -4 -2 0 2 2 -2 -0 -0 1 3 6 6 3 4 3 8
-21 -18 -16 -15 -16 -18 -20 -22 -24 -21 -15 -9 -7 -7 -4 -3 -3 -6 -7 -7 -5 -6 -6 -5 -2 -4 -3 -5 -4 -5 -5 -6 -3 1 1 1 2 -0 1 3 3 4 4 7 7 7 7
-13 -13 -14 -16 -17 -19 -20 -21 -19 -15 -10 -7 -8 -4 -2 -1 -3 -6 -8 -8 -5 -7 -6 -4 -4 -4 -5 -4 -4 -3 -3 -4 -1 -2 1 2 2 -0 0 4 4 4 4 5 6 6 6
-12 -15 -15 -17 -18 -18 -18 -17 -16 -15 -11 -11 -8 -5 -1 -1 -5 -6 -7 -4 -6 -5 -7 -6 -5 -5 -5 -4 -2 -3 -3 -2 -6 -2 1 2 2 2 0 2 2 4 4 4 5 4 4
-16 -16 -18 -18 -16 -16 -15 -16 -18 -19 -14 -14 -4 -2 -1 -1 -8 -8 -5 -4 -5 -5 -6 -5 -6 -6 -7 -4 -3 -3 -3 -4 -5 -4 1 1 0 -0 -2 2 -0 2 2 4 4 4 4
-14 -16 -16 -16 -15 -15 -17 -19 -21 -20 -15 -18 -6 -6 -2 -1 -4 -4 -4 -4 -4 -6 -5 -5 -4 -6 -6 -5 -5 -4 -5 -5 -6 -5 -4 -2 -0 -3 -1 -0 2 1 -2 -1 3 4 4
-15 -15 -14 -14 -14 -15 -16 -19 -20 -19 -15 -19 -5 -6 -4 -7 -6 -5 -4 -4 -4 -4 -6 -5 -4 -6 -4 -5 -5 -4 -5 -6 -6 -6 -3 -2 -1 -2 -4 -4 -6 -5 -3 -2 4 4 4
-13 -14 -12 -11 -13 -14 -13 -14 -15 -14 -14 -14 -4 -4 -3 -4 -4 -4 -6 -6 -4 -4 -4 -4 -4 -4 -4 -6 -6 -5 -5 -5 -4 -4 -5 -3 -1 -3 -3 -8 -5 -1 -2 -2 1 4 3
-11 -10 -9 -13 -11 -10 -10 -12 -12 -11 -10 -6 -3 -3 -4 -5 -5 -5 -5 -4 -3 -3 -4 -5 -4 -4 -4 -5 -5 -3 -4 -5 -6 -4 -4 -2 -3 -3 -4 -6 -5 0 1 -2 -1 0 2
-7 -8 -12 -11 -9 -9 -10 -12 -13 -13 -11 -8 -4 -3 -3 -7 -5 -4 -5 -4 -3 -3 -3 -4 -5 -4 -5 -5 -5 -7 -6 -6 -6 -4 -4 -3 -4 -3 -2 -4 -4 2 0 -1 -1 1 -2
-9 -10 -9 -9 -10 -10 -10 -11 -11 -12 -11 -9 -3 -3 -4 -4 -4 -4 -4 -3 -4 -4 -4 -5 -6 -5 -4 -5 -4 -4 -5 -6 -8 -6 -4 -4 -4 -5 -4 -1 -4 2 1 1 2 1 0
-9 -9 -8 -10 -10 -10 -11 -12 -11 -12 -12 -9 -3 -2 -3 -4 -6 -5 -4 -4 -4 -4 -4 -4 -5 -5 -5 -4 -4 -2 -1 -3 -3 -3 -6 -4 -5 -5 -5 -4 -0 0 -1 -1 -1 1 1
-7 -8 -9 -10 -11 -13 -14 -15 -14 -13 -13 -7 -4 -3 -4 -5 -5 -4 -5 -4 -4 -4 -3 -4 -3 -4 -4 -5 -3 -2 -1 -0 1 0 -0 -1 -3 -5 -6 -6 -3 -1 0 -1 1 -0 -1
-10 -12 -15 -15 -16 -16 -17 -18 -18 -18 -15 -12 -5 -4 -3 -3 -5 -6 -5 -4 -5 -3 -5 -4 -6 -5 -4 -5 -6 -6 -3 -3 -0 -1 0 -0 -1 -5 -5 -3 -1 -0 -1 -0 -1 -2 -5
-13 -16 -15 -16 -16 -17 -17 -17 -17 -17 -18 -16 -6 -3 -2 -2 -6 -7 -8 -5 -5 -4 -3 -2 -3 -3 -3 -7 -9 -4 -3 -5 -4 -3 -3 -2 -1 0 -0 -1 -2 -0 -0 -2 -1 -5 -6

GFSGBSN_850_dewp_234.txt.gz
Dewpoint
-7 -4 -4 -4 -6 -6 -2 -0 1 1 1 4 6 8 9 9 9 9 9 9 9 9 8 8 7 5 4 6 7 5 5 7 7 7 8 8 8 6 6 4 3 5 3 1 1 2 3
-7 -6 -6 -6 -4 -2 1 2 1 1 3 7 9 10 10 9 9 9 9 9 7 6 5 3 1 -1 0 4 4 5 6 6 8 8 9 9 8 8 7 6 5 3 2 2 2 2 2
-6 -5 -5 -4 -2 0 1 1 2 5 8 9 9 10 10 9 9 9 8 5 -0 -7 -10 -18 -25 -25 -14 -13 -11 -5 1 3 4 7 7 9 9 9 8 8 8 7 7 6 4 2 2
-5 -3 -2 -1 0 2 1 2 7 9 9 9 9 9 9 9 8 6 1 -12 -23 -28 -29 -30 -29 -26 -25 -14 -1 3 4 5 4 1 4 6 7 9 9 8 8 9 9 10 7 6 6
-4 -2 -0 1 2 1 4 8 9 9 9 9 9 9 8 6 3 -6 -16 -26 -30 -29 -26 -20 -18 -22 -17 -1 -6 -4 -0 -6 -6 -8 -4 0 5 8 7 8 8 7 9 9 8 5 6
-3 1 2 3 3 5 9 9 8 9 9 9 8 5 6 -2 -8 -25 -31 -29 -20 -11 -11 -7 -5 -7 -3 -6 -8 -5 -6 -4 -4 -4 -5 -1 -1 6 6 8 8 7 7 7 7 5 6
0 3 3 3 4 9 9 9 9 9 8 8 2 -0 -15 -29 -31 -31 -28 -22 -12 -11 -18 -8 -4 -5 -11 -9 -9 -7 -9 -7 -4 -3 -3 -3 -2 -0 1 0 -1 1 6 7 6 5 7
2 2 3 5 9 9 9 9 8 8 8 3 -15 -25 -31 -31 -22 -20 -23 -14 -7 -9 -7 -13 -10 -9 -8 -7 -6 -9 -11 -9 -2 1 0 1 2 -2 -5 -6 -4 -5 -2 2 3 4 5
4 2 5 8 8 9 8 8 7 6 1 -9 -28 -30 -31 -27 -16 -16 -16 -8 -5 -3 -6 -13 -8 -7 -9 -9 -4 -9 -13 -10 -0 2 -0 2 -0 -3 0 1 2 2 2 -1 -2 1 3
-0 5 7 9 8 8 8 7 4 -2 -25 -30 -29 -27 -25 -16 -11 -11 -9 -6 -6 -6 -10 -13 -7 -5 -10 -9 -6 -9 -13 -10 -1 -0 -2 -1 -1 1 1 1 1 3 1 1 1 -1 4
7 8 8 8 8 8 7 5 -12 -24 -26 -25 -21 -21 -21 -13 -16 -11 -7 -6 -7 -5 -18 -16 -10 -9 -9 -8 -9 -9 -11 -10 -5 -8 -6 -5 -4 -2 1 -1 -1 2 -1 1 2 2 3
8 8 8 8 7 5 4 -3 -23 -25 -22 -23 -22 -22 -19 -14 -11 -10 -10 -8 -5 -9 -30 -7 -8 -6 -7 -6 -8 -9 -9 -9 -8 -3 -3 -1 -2 -1 -2 -2 0 0 2 4 4 1 5
8 7 7 7 6 2 -12 -22 -23 -22 -22 -23 -22 -13 -11 -11 -10 -10 -8 -6 -9 -12 -14 -6 -5 -6 -6 -4 -8 -6 -6 -6 -5 -4 -2 -4 -4 -4 -2 2 -2 1 2 5 5 4 3
7 7 7 6 -1 -11 -19 -22 -22 -21 -23 -23 -12 -7 -10 -8 -8 -10 -9 -10 -12 -12 -7 -7 -6 -6 -4 -6 -6 -5 -6 -6 -4 -1 -1 -2 -1 -2 0 1 0 2 3 5 3 -1 0
6 5 5 2 -15 -19 -20 -21 -21 -23 -24 -13 -7 -10 -8 -6 -8 -10 -13 -9 -11 -8 -6 -5 -4 -4 -5 -7 -5 -5 -6 -5 -5 -3 0 0 -1 -3 -4 -3 0 4 5 3 5 4 3
4 -2 -12 -17 -18 -18 -19 -23 -23 -23 -14 -7 -10 -6 -3 -5 -9 -12 -7 -7 -6 -7 -6 -5 -2 -4 -3 -5 -4 -6 -6 -7 -5 -1 -1 0 1 -3 -1 1 2 4 4 3 5 3 -1
-7 -13 -15 -15 -17 -21 -24 -23 -22 -16 -8 -9 -8 -4 -2 -4 -10 -10 -7 -9 -6 -7 -6 -5 -4 -5 -5 -4 -5 -4 -4 -5 -3 -4 -4 -1 1 -1 -3 0 3 2 4 2 4 4 2
-8 -15 -15 -18 -21 -22 -23 -21 -16 -12 -7 -7 -8 -4 -1 -4 -6 -7 -8 -5 -5 -5 -6 -6 -5 -4 -5 -5 -3 -4 -3 -5 -7 -4 -3 0 1 -1 -3 -5 0 -1 2 2 4 4 3
-13 -14 -18 -20 -21 -22 -20 -18 -15 -10 -7 -10 -3 -1 -1 -3 -8 -8 -5 -5 -5 -6 -6 -5 -5 -6 -6 -4 -4 -5 -5 -5 -7 -5 -1 -0 -0 -0 -3 -5 -3 -3 -2 -0 3 4 5
-16 -17 -18 -20 -20 -20 -20 -20 -19 -11 -10 -13 -6 -6 -2 -3 -4 -5 -4 -4 -4 -6 -5 -5 -5 -5 -6 -4 -5 -4 -5 -6 -8 -7 -6 -4 -2 -1 0 -1 -3 -0 1 3 3 4 4
-15 -17 -18 -18 -18 -19 -21 -22 -19 -15 -12 -16 -7 -6 -4 -7 -6 -5 -5 -4 -4 -3 -5 -5 -4 -6 -4 -4 -4 -5 -6 -6 -7 -7 -5 -4 -1 -2 -3 -5 -5 0 1 1 3 4 5
-16 -16 -15 -16 -18 -19 -20 -19 -18 -12 -13 -14 -6 -4 -4 -4 -4 -5 -5 -6 -4 -4 -4 -4 -4 -5 -4 -5 -6 -4 -5 -4 -4 -5 -5 -5 -1 -3 -3 -7 -6 -0 1 -0 0 2 4
-14 -14 -14 -16 -18 -18 -17 -17 -16 -14 -12 -9 -5 -7 -10 -5 -5 -6 -5 -4 -3 -3 -4 -4 -4 -4 -4 -4 -5 -5 -4 -4 -3 -3 -4 -3 -2 -3 -3 -6 -4 -0 2 2 0 1 1
-12 -11 -13 -13 -11 -13 -14 -14 -11 -11 -12 -18 -11 -10 -8 -7 -5 -4 -5 -5 -4 -3 -3 -4 -4 -4 -5 -5 -5 -6 -5 -3 -3 -4 -5 -3 -3 -3 -2 -4 -3 0 0 2 1 1 1
-9 -12 -9 -10 -11 -11 -12 -13 -12 -13 -12 -14 -12 -11 -7 -6 -5 -5 -5 -4 -4 -4 -4 -4 -6 -5 -4 -5 -4 -4 -5 -5 -6 -6 -5 -4 -4 -5 -4 -2 -5 -2 -0 1 2 1 1
-11 -10 -8 -9 -10 -10 -11 -12 -13 -13 -12 -12 -9 -11 -10 -7 -6 -5 -4 -4 -4 -4 -5 -4 -5 -5 -5 -4 -5 -2 -1 -1 -1 -2 -5 -5 -6 -6 -5 -4 0 -1 -1 -1 1 -0 -1
-9 -8 -9 -9 -10 -10 -11 -13 -14 -14 -11 -10 -7 -10 -9 -7 -6 -6 -5 -5 -4 -4 -5 -5 -3 -5 -5 -7 -5 -3 -2 -2 -1 -1 -0 -1 -3 -6 -6 -3 -2 -3 -1 -2 -1 0 -2
-8 -8 -9 -10 -13 -14 -16 -16 -16 -16 -14 -10 -9 -8 -9 -6 -6 -6 -6 -4 -5 -4 -5 -4 -7 -5 -4 -6 -8 -7 -3 -4 -3 -3 -1 -0 -2 -3 -5 -8 -5 -3 -2 -2 -3 -2 -5
-8 -10 -13 -15 -16 -18 -19 -19 -20 -20 -19 -14 -10 -6 -9 -12 -6 -7 -7 -7 -7 -5 -3 -2 -4 -4 -3 -8 -10 -5 -4 -6 -3 -4 -4 -3 -2 -1 -3 -6 -5 -2 -0 -2 -1 -5 -7

GFSGBSN_850_dewp_237.txt.gz
Dewpoint
1 -2 0 1 2 2 2 0 -2 -5 -5 -1 1 1 5 7 8 9 9 9 9 9 8 8 7 4 1 2 5 4 5 7 6 6 8 8 8 8 8 6 4 5 4 3 3 2 1
-5 -4 -3 0 0 1 0 -2 -5 -3 -1 1 2 4 7 9 9 9 9 9 8 7 6 4 -3 -14 -18 -5 1 4 3 -0 4 6 5 7 9 8 8 7 6 5 5 5 5 4 3
-7 -4 -7 -4 -2 -2 -3 -5 -4 -1 2 2 4 9 9 9 9 9 9 7 6 3 -4 -13 -27 -27 -24 -21 -11 -4 3 4 4 0 -1 3 6 8 8 7 7 7 9 7 7 7 6
-4 -6 -6 -7 -5 -4 -4 -2 1 2 1 5 9 8 8 9 9 8 6 3 -2 -8 -15 -27 -25 -20 -24 -5 -7 -7 -4 -4 -3 -5 -7 -5 3 6 7 6 6 7 7 9 5 4 6
-2 -6 -6 -7 -6 -4 -1 2 3 3 6 8 8 8 8 9 7 4 0 -4 -10 -27 -22 -13 -12 -15 -15 -1 -7 -9 -11 -7 -11 -10 -8 -5 -3 2 5 7 6 4 7 6 5 2 2
-0 -4 -6 -5 -4 -3 2 3 3 8 8 9 8 9 9 8 3 -2 -16 -30 -28 -13 -10 -5 -5 -5 -11 -9 -8 -5 -14 -14 -13 -9 -10 -5 -1 2 2 4 5 4 5 5 4 2 3
-1 -2 -4 -4 -3 0 3 3 5 9 8 9 9 9 8 6 -13 -28 -30 -28 -12 -11 -20 -14 -11 -11 -11 -12 -10 -7 -14 -11 -13 -5 -8 -1 -2 -5 -6 -5 -3 -1 1 0 -2 -4 -2
3 -5 -3 -1 -1 3 3 5 8 8 8 8 8 7 -2 -25 -30 -29 -26 -21 -18 -17 -11 -9 -9 -9 -10 -9 -9 -10 -12 -11 -3 -6 -2 -4 -5 -6 -6 -4 -2 -1 1 1 -1 -5 -5
2 -2 0 0 1 3 4 7 8 8 8 8 6 -2 -28 -27 -26 -20 -24 -19 -17 -16 -11 -13 -7 -7 -10 -9 -5 -8 -13 -11 -7 -3 -7 -6 -10 -12 -7 -4 -1 -0 1 -1 -1 -2 -1
4 1 3 1 2 5 5 8 8 8 7 6 -12 -29 -30 -19 -14 -18 -14 -13 -12 -14 -6 -12 -8 -7 -10 -9 -9 -10 -13 -10 -6 -6 -8 -5 -8 -7 -6 -5 -5 0 -3 -2 -1 1 3
4 4 5 4 4 5 7 8 8 7 5 -23 -26 -25 -18 -18 -18 -15 -11 -13 -9 -11 -8 -13 -9 -8 -9 -9 -10 -12 -13 -11 -8 -8 -7 -8 -7 -5 -3 -4 -5 -2 -5 -3 -1 2 3
5 5 5 4 5 7 8 8 7 0 -19 -21 -23 -23 -17 -17 -15 -13 -14 -11 -8 -4 -16 -8 -7 -8 -7 -6 -10 -10 -10 -10 -9 -5 -6 -6 -7 -6 -5 -5 -4 -3 -1 -0 2 3 5
4 5 5 3 4 8 8 5 -1 -15 -19 -21 -22 -19 -15 -15 -12 -11 -11 -8 -5 -6 -13 -6 -7 -7 -6 -6 -9 -8 -8 -8 -5 -2 -3 -5 -7 -9 -7 -4 -5 -1 0 3 3 5 4
6 6 5 2 6 7 6 1 -6 -13 -19 -24 -16 -13 -12 -13 -11 -10 -9 -9 -7 -10 -6 -7 -6 -6 -7 -7 -7 -6 -8 -6 -4 -2 -2 -1 -2 -5 -7 -2 0 0 2 4 5 3 3
5 4 4 6 6 5 3 -12 -14 -19 -17 -14 -14 -13 -12 -11 -10 -11 -13 -6 -7 -8 -6 -6 -6 -6 -7 -9 -6 -6 -7 -5 -4 -2 -2 -1 -4 -5 -4 -6 -3 2 3 3 5 3 5
4 6 7 5 4 -4 -14 -13 -16 -17 -15 -13 -15 -12 -8 -11 -13 -12 -5 -5 -6 -8 -6 -5 -3 -5 -3 -6 -5 -4 -4 -6 -4 -2 -3 -3 -0 -2 -5 -3 2 1 -1 3 2 5 4
6 6 5 -0 -4 -9 -8 -11 -15 -15 -10 -13 -17 -10 -7 -10 -11 -10 -4 -5 -6 -7 -6 -5 -4 -4 -5 -5 -6 -6 -5 -6 -5 -6 -6 -2 0 -2 -6 -2 0 -2 1 2 2 2 6
5 2 -1 -3 -8 -9 -11 -17 -21 -9 -13 -13 -8 -2 -5 -9 -6 -8 -4 -5 -5 -6 -6 -6 -5 -5 -5 -5 -5 -6 -6 -7 -8 -6 -4 -3 0 -1 -5 -7 -5 -4 1 2 3 4 5
2 -1 -3 -5 -7 -11 -20 -22 -13 -11 -13 -11 -3 -1 -3 -9 -4 -4 -5 -5 -5 -6 -6 -6 -6 -6 -6 -5 -3 -5 -6 -7 -7 -6 -3 -2 -2 -2 -5 -7 -5 -2 2 2 2 4 5
-1 -4 -8 -9 -14 -20 -20 -18 -11 -10 -12 -14 -5 -3 -4 -6 -6 -5 -5 -5 -5 -6 -6 -6 -5 -5 -5 -5 -6 -4 -6 -7 -7 -7 -6 -6 -1 -2 -2 -2 -3 1 1 1 1 4 4
-6 -9 -12 -17 -20 -18 -15 -12 -8 -10 -11 -15 -9 -4 -5 -3 -4 -4 -5 -5 -4 -4 -5 -5 -5 -6 -4 -3 -4 -5 -7 -6 -7 -6 -5 -6 -2 -3 -4 -5 -5 1 1 0 1 2 2
-9 -15 -18 -20 -18 -18 -17 -12 -9 -8 -10 -15 -8 -5 -6 -4 -5 -5 -5 -4 -4 -4 -4 -6 -5 -5 -4 -3 -4 -3 -4 -5 -4 -5 -4 -5 -3 -4 -4 -8 -6 -4 -1 -1 0 1 0
-16 -17 -17 -19 -20 -20 -18 -16 -13 -12 -13 -14 -9 -10 -11 -5 -5 -5 -5 -5 -4 -3 -4 -4 -4 -3 -4 -5 -5 -4 -4 -4 -4 -3 -3 -4 -2 -3 -4 -7 -4 -2 1 1 -0 0 1
-18 -19 -19 -19 -19 -18 -18 -19 -14 -13 -15 -17 -15 -14 -9 -4 -5 -5 -5 -5 -4 -4 -3 -4 -4 -4 -6 -5 -6 -6 -5 -4 -3 -4 -3 -3 -2 -3 -3 -5 -1 -1 -3 1 -1 -0 -0
-17 -17 -17 -15 -14 -14 -14 -14 -13 -13 -15 -17 -18 -16 -12 -4 -5 -5 -5 -5 -4 -4 -4 -4 -5 -5 -5 -6 -4 -4 -4 -6 -6 -5 -4 -5 -3 -2 -2 -3 -6 -3 -2 0 -0 -1 -2
-15 -13 -11 -12 -12 -14 -14 -13 -14 -15 -14 -16 -16 -18 -16 -6 -5 -6 -4 -5 -3 -3 -5 -5 -5 -5 -5 -5 -4 -2 -2 -3 -4 -4 -5 -5 -6 -3 -2 -2 -1 -2 -3 -3 1 -1 -2
-10 -10 -11 -11 -12 -12 -14 -15 -15 -16 -14 -15 -15 -16 -16 -8 -6 -8 -5 -5 -4 -4 -4 -4 -4 -5 -6 -5 -3 -2 -3 -3 -2 -2 -2 -3 -2 -1 -3 -1 -2 -4 -3 -4 -3 -1 -3
-9 -9 -10 -11 -12 -13 -14 -15 -15 -15 -15 -16 -15 -16 -17 -9 -7 -8 -7 -6 -4 -5 -3 -4 -6 -4 -4 -4 -4 -4 -3 -3 -3 -3 -2 -1 -2 -1 -2 -3 -2 -4 -3 -2 -2 -2 -5
-8 -9 -11 -12 -14 -15 -16 -16 -16 -16 -17 -16 -17 -18 -20 -17 -8 -7 -9 -7 -7 -5 -4 -3 -5 -4 -4 -5 -6 -4 -3 -3 -3 -3 -5 -3 -1 -1 -3 -3 -6 -3 -1 -2 -2 -1 -6

GFSGBSN_850_dewp_243.txt.gz
Dewpoint
9 6 6 6 7 7 5 4 4 5 5 4 3 0 -2 -2 -1 0 3 7 8 8 8 7 4 1 -1 1 1 1 1 0 -1 1 1 1 3 3 3 2 2 2 1 1 1 1 0
10 9 5 5 8 7 6 5 4 5 5 4 2 -1 -3 -1 1 1 5 9 9 8 6 4 -0 -6 -3 -2 -4 -2 -3 -5 -5 -3 -3 -5 -6 -5 -3 -1 -0 -0 -1 -1 -1 -1 -1
9 10 7 3 7 8 7 5 5 6 5 4 1 -2 -1 1 2 7 9 9 8 6 4 1 -9 -16 -6 -8 -4 -8 -10 -10 -8 -9 -8 -9 -8 -5 -2 -3 -4 -3 -1 -2 -3 -2 -2
10 9 9 5 5 8 8 6 6 6 5 3 -1 -3 1 3 7 8 8 8 7 3 -4 -17 -20 -7 -11 -5 -7 -7 -11 -12 -10 -11 -12 -11 -7 -7 -7 -4 -3 -3 -2 -0 -5 -6 -7
9 9 9 8 2 8 8 8 7 6 4 1 -2 -2 2 6 8 8 8 7 1 -10 -17 -16 -4 -2 -6 -4 -7 -8 -13 -14 -11 -13 -11 -12 -9 -6 -6 -5 -4 -3 -1 -2 -5 -8 -8
8 9 9 9 3 5 8 9 6 6 3 -1 -3 -1 5 8 8 8 7 3 -10 -15 -15 -6 -9 -6 -10 -11 -9 -10 -11 -14 -11 -12 -11 -12 -10 -9 -7 -4 -1 -6 -8 -10 -11 -15 -15
5 9 9 9 6 4 7 8 6 5 1 -2 -1 2 4 8 8 8 5 -10 -6 -6 -8 -11 -11 -14 -13 -11 -10 -10 -13 -15 -13 -12 -11 -11 -8 -6 -11 -12 -12 -13 -13 -13 -15 -16 -12
2 8 8 9 5 0 3 7 5 3 -1 1 2 4 8 8 8 6 0 -7 -8 -7 -7 -7 -8 -11 -10 -10 -10 -14 -15 -14 -13 -11 -13 -10 -9 -13 -16 -17 -14 -12 -10 -10 -11 -12 -11
3 5 8 9 8 -1 2 5 4 0 0 5 5 5 8 7 5 -6 -7 -6 -23 -15 -8 -8 -8 -11 -13 -12 -13 -17 -15 -15 -14 -11 -10 -9 -11 -14 -13 -11 -9 -9 -8 -8 -7 -9 -9
2 5 9 9 9 6 1 3 1 -1 3 5 7 7 7 5 -0 -14 -9 -22 -24 -13 -4 -6 -9 -9 -12 -13 -9 -16 -13 -14 -12 -10 -10 -9 -12 -11 -10 -9 -8 -6 -8 -7 -6 -5 -2
2 4 7 9 8 5 1 -1 -2 0 5 4 5 8 7 2 -6 -6 -11 -21 -20 -19 5 -9 -11 -11 -12 -15 -16 -16 -12 -11 -11 -9 -10 -9 -10 -10 -8 -9 -8 -6 -8 -6 -6 -2 0
3 6 8 9 8 4 -0 -3 -2 4 4 6 7 7 -1 -13 -12 -14 -18 -17 -16 2 3 -9 -13 -13 -13 -15 -16 -14 -13 -10 -10 -10 -11 -11 -13 -11 -9 -9 -7 -7 -5 -4 -4 -2 5
3 4 9 8 6 5 -3 -2 4 5 7 6 7 -4 -10 -19 -18 -16 -12 -13 4 7 -12 -11 -13 -13 -13 -14 -13 -13 -13 -8 -5 -4 -6 -9 -11 -12 -10 -5 -5 -5 0 4 3 3 4
4 7 7 7 7 3 -3 3 4 7 6 6 -1 -13 -14 -19 -15 -15 -11 -3 5 -6 -11 -14 -13 -14 -13 -12 -12 -11 -12 -8 -8 -5 -3 -2 -4 -8 -7 -5 0 -0 -0 4 4 2 1
5 8 8 8 6 0 2 5 7 7 6 -0 -9 -13 -14 -13 -13 -12 -4 6 3 -11 -13 -13 -13 -13 -12 -10 -9 -10 -10 -10 -1 1 -1 -0 -3 -6 -6 -6 -2 1 1 -1 5 2 5
4 6 8 8 5 2 4 7 7 6 -6 -10 -10 -8 -7 -9 -12 -5 1 1 -8 -12 -12 -11 -8 -11 -6 -9 -8 -4 -7 -2 0 -7 -6 1 -0 -3 -6 -7 -5 -2 -2 2 1 5 5
5 7 7 8 5 4 6 7 6 4 0 -5 -4 -3 -6 -11 -7 -5 5 -3 -10 -12 -12 -9 -8 -4 -10 -9 -11 -11 -11 -11 -11 -10 -9 2 2 -2 -3 -2 2 2 2 2 4 3 5
6 7 7 7 4 4 6 6 2 -3 -4 -6 -5 0 -6 -7 -3 1 1 -10 -12 -11 -10 -9 -10 -10 -9 -7 -10 -9 -9 -10 -10 -8 -5 -5 2 1 -2 -7 -7 -1 3 3 4 5 3
6 7 8 5 6 6 7 6 4 2 2 -5 -1 -4 -7 -2 2 1 -8 -10 -11 -10 -10 -8 -8 -9 -9 -7 -5 -9 -8 -10 -8 -7 -3 -3 -1 -1 -6 -6 -4 1 0 2 3 3 2
6 7 5 5 3 7 6 5 4 3 -2 -2 -4 1 -9 -6 -7 -7 -7 -8 -8 -10 -10 -10 -9 -8 -8 -8 -8 -5 -10 -8 -7 -6 -5 -5 -0 0 0 -1 1 2 0 -1 1 2 1
7 6 5 5 7 6 5 3 3 2 -4 -3 -1 -1 -7 1 -3 -9 -8 -9 -7 -7 -9 -9 -8 -8 -7 -3 -8 -9 -8 -7 -8 -7 -7 -6 0 -5 -7 -6 -4 -2 0 -1 -0 1 1
6 6 7 7 5 4 4 3 -1 -8 -7 -3 -5 -6 -7 -7 -9 -8 -4 -9 -10 -11 -8 -8 -7 -8 -5 -2 -3 -1 -4 -7 -7 -8 -7 -7 -4 -6 -8 -4 -5 -3 -3 -3 -2 -1 -3
7 7 6 5 4 4 3 -1 -8 -6 -6 -4 -4 -9 -6 -8 -8 -5 -6 -10 -10 -9 -9 -9 -8 -5 -3 -6 -7 -7 -6 -6 -6 -5 -4 -4 -3 -6 -6 -10 -6 -0 -0 -2 -2 -3 -3
6 5 5 5 4 3 -2 -8 -4 -10 -6 -14 -4 -3 -3 -2 -7 -8 -9 -10 -9 -9 -7 -8 -6 -6 -6 -5 -5 -6 -6 -7 -7 -7 -6 -4 -4 -5 -4 -7 1 1 -1 -4 -4 -5 -7
4 4 4 2 1 -4 -7 -6 -6 -11 -15 -6 -4 -2 -3 -2 -9 -10 -9 -9 -8 -7 -7 -7 -6 -5 -4 -5 -5 -6 -6 -6 -8 -8 -7 -7 -5 -1 -2 -6 -3 -7 -4 -0 -3 -4 -9
2 1 -1 -4 -9 -9 -8 -5 -7 -11 -19 -6 -4 -3 -4 -2 -7 -10 -8 -8 -7 -6 -6 -6 -5 -4 -3 -6 -3 -3 -9 -7 -8 -8 -10 -7 -7 -2 -2 -6 -5 -7 -10 -5 -4 1 -8
-1 -7 -14 -16 -17 -12 -6 -7 -8 -13 -17 -11 -21 -4 -5 -4 -10 -10 -8 -7 -8 -8 -5 -6 -5 -3 -4 -3 -3 -6 -7 -8 -8 -8 -8 -8 -6 -4 -2 -1 -5 -11 -11 -11 0 -1 -5
-13 -10 -9 -8 -8 -9 -7 -7 -9 -13 -18 -13 -18 -7 -4 -6 -8 -6 -6 -6 -7 -7 -4 -4 -4 -3 -4 2 -1 -4 -5 -3 -4 -9 -9 -5 -3 -5 -6 -5 -4 -10 -10 -6 -6 -8 -7
-13 -14 -13 -13 -11 -10 -10 -11 -14 -17 -16 -11 -16 -6 -5 -5 -5 -5 -3 -4 -4 -6 -4 -4 -2 -3 -1 1 0 -3 -4 -2 -5 -7 -7 -6 -6 -5 -7 -3 -8 -9 -9 -8 -8 -8 -8

GFSGBSN_850_dewp_246.txt.gz
Dewpoint
9 4 4 7 8 8 6 4 5 4 4 5 5 4 3 0 -2 -0 0 1 6 8 8 7 5 4 2 2 -0 -2 -4 -3 -4 -4 -3 -2 -3 -3 -3 -2 -2 -1 -0 0 1 -0 -1
10 9 6 5 7 8 6 6 4 5 5 6 4 4 3 -0 -2 0 2 1 6 8 8 6 4 -1 -3 -2 -3 -6 -9 -11 -8 -8 -8 -8 -9 -8 -7 -7 -6 -6 -5 -5 -5 -5 -5
10 10 8 6 5 6 8 8 5 5 5 6 5 4 2 -1 1 1 4 5 8 8 7 4 -3 -11 -4 -5 -5 -7 -10 -13 -11 -9 -11 -11 -10 -10 -10 -10 -10 -6 -4 -5 -6 -7 -7
9 10 10 9 7 4 7 8 6 6 6 7 4 4 1 -1 -2 3 7 7 7 7 4 -4 -11 -12 -5 -6 -9 -8 -12 -13 -15 -12 -13 -14 -13 -10 -9 -7 -7 -6 -6 -4 -7 -6 -7
7 9 10 10 9 6 6 8 8 7 6 6 5 3 -1 -0 -1 2 7 7 7 3 -4 -12 -0 -1 -5 -6 -8 -9 -11 -12 -15 -13 -13 -11 -12 -10 -8 -5 -4 -5 -3 -4 -6 -11 -16
4 7 10 10 10 8 6 7 9 8 7 5 5 2 0 3 1 5 7 7 2 -5 -6 -2 -6 -3 -9 -11 -11 -11 -11 -14 -14 -13 -12 -12 -12 -10 -9 -7 -4 -7 -9 -11 -12 -17 -17
3 5 9 9 9 9 6 8 9 9 6 6 5 0 2 5 6 7 8 4 -3 -3 -7 -10 -11 -12 -13 -12 -11 -11 -14 -14 -13 -12 -11 -13 -11 -8 -10 -12 -14 -14 -14 -14 -14 -14 -12
3 3 8 9 10 9 7 6 9 9 7 6 3 1 5 8 7 7 6 -5 -5 -4 -4 -8 -10 -12 -11 -13 -11 -15 -16 -14 -14 -12 -11 -9 -8 -12 -14 -14 -13 -11 -10 -9 -10 -11 -9
3 3 5 8 9 9 8 6 8 9 6 5 1 2 7 8 7 6 1 -4 -15 -15 -5 -7 -8 -11 -13 -15 -13 -16 -14 -14 -14 -10 -9 -8 -10 -13 -12 -11 -10 -9 -7 -7 -7 -9 -9
4 2 2 6 9 9 9 6 7 8 6 4 1 4 7 7 5 3 -5 -11 -20 -17 -1 -4 -8 -9 -13 -14 -9 -17 -12 -12 -11 -9 -10 -9 -10 -11 -10 -10 -9 -7 -9 -8 -7 -6 -3
4 3 1 4 9 9 8 6 7 6 5 2 3 7 7 5 1 -5 -5 -22 -26 -20 5 -7 -11 -11 -12 -16 -16 -15 -12 -10 -9 -9 -10 -9 -11 -11 -9 -8 -9 -6 -8 -6 -5 -2 0
1 3 2 3 7 8 8 3 1 4 4 2 6 7 5 4 1 -5 -17 -21 -16 4 4 -9 -14 -13 -13 -15 -16 -14 -12 -10 -9 -10 -11 -10 -13 -12 -8 -8 -7 -6 -2 -3 -3 -1 5
3 3 3 5 8 8 9 5 7 5 3 6 7 3 2 2 -8 -15 -10 -9 3 5 -9 -9 -13 -13 -14 -14 -13 -13 -13 -8 -5 -3 -4 -7 -9 -10 -7 -3 -5 -1 -1 4 3 4 5
4 3 4 4 7 9 8 7 6 3 5 7 5 2 -2 -2 -12 -11 -5 -1 4 1 -11 -14 -15 -15 -12 -11 -11 -11 -12 -8 -7 -5 -1 -2 -1 -7 -6 -4 -3 -3 -1 3 3 2 2
4 4 4 4 6 8 7 4 3 5 7 6 4 -3 -12 -12 -12 -9 -1 5 6 -6 -12 -14 -14 -12 -11 -9 -9 -9 -10 -10 -3 0 -1 -1 -3 -6 -6 -7 -3 -0 2 -1 3 2 4
4 4 4 5 8 8 6 2 5 6 7 6 -3 -10 -6 -4 -5 -7 2 4 -7 -12 -14 -14 -9 -9 -8 -9 -8 -3 -7 -4 -2 -8 -2 1 -0 -3 -4 -5 -3 -2 -3 1 -0 4 3
4 5 5 8 8 8 5 5 4 7 5 -3 -8 -5 -7 -9 -9 0 4 0 -10 -13 -11 -8 -7 -5 -9 -10 -10 -10 -11 -12 -11 -9 -9 1 1 -2 -3 0 2 1 2 2 4 3 5
5 6 5 7 8 7 6 7 7 6 2 -6 0 0 -0 -4 -1 2 2 -9 -13 -13 -10 -11 -10 -9 -9 -10 -11 -9 -10 -11 -9 -8 -5 -5 2 1 -2 -4 -5 -3 0 2 5 2 0
5 6 6 6 6 8 5 6 6 6 2 -1 -1 -1 -2 -0 2 1 -5 -11 -12 -11 -10 -9 -9 -10 -10 -7 -6 -10 -9 -9 -7 -7 -4 -3 -0 -0 -5 -4 -4 -1 -2 -1 1 1 1
7 6 6 7 7 7 6 6 6 4 -2 2 -2 -0 -1 0 0 -5 -7 -9 -10 -11 -10 -10 -10 -10 -9 -9 -9 -7 -11 -9 -7 -7 -6 -4 0 1 -0 1 -2 0 -0 -1 -1 1 -0
6 6 6 8 7 5 5 6 5 2 1 2 -1 -1 -6 -0 -0 -4 -7 -8 -9 -8 -10 -10 -9 -8 -8 -2 -8 -9 -10 -8 -8 -9 -5 -5 1 -4 -6 -4 -5 -3 -2 -1 0 0 -0
6 6 5 5 6 5 5 6 4 2 2 2 -3 -5 -9 -6 -5 -5 -3 -5 -8 -9 -8 -8 -7 -8 -5 -2 -3 -1 -5 -7 -8 -8 -8 -8 -4 -6 -5 -6 -5 -4 -4 -3 -3 -2 -2
6 6 6 7 4 3 5 4 2 2 2 -4 -4 -8 -5 -5 -5 -3 -4 -7 -9 -9 -9 -10 -10 -7 -3 -8 -9 -8 -7 -6 -7 -6 -5 -5 -4 -4 -4 -7 -3 0 0 -3 -4 -3 -5
5 5 6 6 5 6 6 4 2 3 -0 -15 -8 -5 -4 -2 -4 -4 -9 -11 -10 -8 -8 -9 -8 -6 -6 -6 -6 -7 -7 -7 -7 -7 -7 -4 -5 -4 -2 -2 2 0 -3 -4 -4 -7 -9
6 6 6 6 6 5 4 1 1 -4 -10 -5 -4 -6 -4 -1 -6 -7 -9 -10 -10 -9 -8 -8 -6 -4 -4 -6 -3 -5 -4 -5 -6 -9 -9 -8 -5 -2 -2 -2 -3 -9 -5 -1 -3 -1 -8
5 6 6 4 4 4 2 -2 -4 -8 -10 -3 -4 -5 -5 -3 -4 -9 -8 -9 -4 -5 -6 -6 -5 -4 -3 -3 -1 -1 -7 -9 -9 -8 -12 -10 -8 -1 -3 -3 -5 -9 -13 -13 -5 2 -5
5 6 5 5 3 3 0 -4 -6 -3 -3 -4 -3 -3 -5 -6 -10 -10 -7 -4 -7 -6 -4 -6 -5 -3 -2 -0 1 -5 -7 -10 -6 -9 -10 -9 -7 -3 -3 -3 -5 -10 -12 -11 -2 -2 -8
4 4 4 4 4 1 -2 -10 -8 -5 -6 -5 -4 -4 -6 -7 -10 -9 -8 -8 -8 -7 -2 -5 -3 -2 -1 3 1 -4 -2 -4 -8 -9 -12 -8 -7 -4 -6 -4 -4 -10 -10 -7 -7 -9 -10
3 4 4 2 -0 -2 -8 -9 -9 -10 -6 -5 -6 -6 -7 -6 -5 -5 -3 -4 -4 -7 -5 -4 -1 -1 1 3 2 -3 -5 -2 -6 -6 -7 -6 -4 -5 -6 -1 -7 -8 -10 -11 -9 -8 -7

GFSGBSN_850_dewp_249.txt.gz
Dewpoint
10 10 7 7 8 8 8 8 5 4 5 4 4 5 5 4 2 -1 -2 -2 -1 2 6 7 6 5 3 1 -2 -3 -7 -7 -10 -8 -7 -8 -8 -8 -5 -8 -8 -6 -7 -6 -5 -5 -5
10 10 9 7 8 8 8 8 5 5 4 3 3 4 5 4 1 -1 -3 -2 1 3 6 7 6 3 -2 -2 -3 -4 -7 -13 -13 -10 -10 -11 -10 -10 -10 -9 -8 -8 -10 -8 -7 -7 -6
9 10 9 5 7 6 8 8 8 6 5 4 3 5 4 3 1 -1 -3 -1 1 6 6 6 3 -3 -4 -4 -5 -6 -9 -13 -14 -15 -14 -12 -13 -13 -12 -9 -8 -8 -5 -6 -7 -7 -7
7 10 10 7 4 7 6 8 8 8 6 5 4 5 5 3 0 -1 -0 0 3 5 6 1 -3 -9 -3 -5 -8 -8 -11 -11 -13 -15 -14 -12 -13 -12 -12 -10 -8 -5 -5 -3 -7 -11 -16
7 8 10 9 7 6 5 8 8 8 7 5 5 5 5 2 -0 1 1 4 5 5 4 -7 -3 -4 -5 -8 -11 -11 -11 -12 -15 -13 -12 -12 -12 -11 -11 -6 -4 -4 -2 -9 -13 -17 -15
5 7 9 10 9 8 7 7 8 9 7 6 6 6 4 1 -1 2 5 6 5 5 -3 -2 -5 -3 -9 -11 -12 -11 -12 -14 -13 -13 -12 -12 -11 -8 -8 -6 -3 -10 -12 -13 -12 -13 -13
5 5 8 9 10 10 8 7 7 9 8 6 6 6 4 -0 3 6 7 6 1 -3 -8 -9 -11 -11 -11 -12 -12 -12 -16 -15 -14 -14 -9 -11 -10 -8 -9 -12 -12 -11 -10 -9 -10 -11 -9
6 5 5 7 9 9 9 8 7 9 9 7 7 6 3 1 4 7 7 5 -2 -2 -3 -7 -10 -12 -12 -14 -13 -15 -16 -14 -13 -9 -9 -7 -6 -10 -12 -11 -10 -9 -8 -8 -9 -9 -9
5 5 4 4 9 9 10 9 7 8 9 8 7 5 1 3 7 7 4 2 2 -6 -2 -6 -8 -10 -13 -14 -14 -16 -12 -12 -11 -7 -7 -7 -8 -11 -10 -9 -9 -8 -7 -7 -7 -8 -8
4 6 5 3 7 9 9 9 7 8 8 8 7 4 2 6 6 6 4 2 -18 -21 1 -4 -8 -10 -13 -14 -10 -15 -11 -10 -9 -7 -8 -8 -10 -9 -8 -7 -7 -5 -6 -5 -2 -1 -1
3 5 5 3 6 9 9 9 7 8 8 8 6 2 4 6 4 4 1 -4 -18 -14 5 -4 -11 -12 -13 -15 -16 -11 -10 -10 -7 -9 -10 -6 -7 -8 -5 -4 -4 -3 -2 -1 -1 1 1
3 5 5 3 5 7 9 9 7 8 8 7 4 5 7 6 4 1 -8 -22 -12 4 3 -8 -12 -13 -12 -15 -14 -13 -9 -14 -10 -8 -7 -7 -10 -6 -4 -4 -5 -4 -1 -1 0 1 3
4 5 5 3 4 6 8 9 7 8 8 6 5 6 6 5 3 -9 -21 -10 4 4 -5 -8 -12 -13 -12 -11 -11 -10 -7 -5 -3 -2 -1 -4 -7 -8 -6 -2 -5 -2 1 -0 -1 4 3
4 5 5 4 3 5 8 9 8 8 6 5 6 6 5 4 -5 -19 -14 1 6 3 -1 -12 -14 -13 -10 -10 -9 -8 -8 -4 -4 -3 -0 -1 -2 -5 -6 -3 -0 -1 1 -1 -0 -1 4
4 5 2 4 4 6 8 9 8 7 6 4 5 3 0 -10 -10 -4 -1 2 2 1 -9 -12 -14 -9 -7 -9 -7 -6 -9 -4 -3 -2 -4 -3 -3 -4 -5 -3 -2 0 1 -1 1 3 -1
4 6 1 3 4 5 8 8 5 4 5 5 5 -1 -6 -11 -5 -2 0 3 1 -11 -12 -11 -7 -7 -6 -7 -4 -2 -5 -5 -4 -4 -3 -3 -3 -3 -4 -3 -3 -1 -2 -0 -1 3 2
3 6 4 4 4 7 7 8 5 6 6 6 4 -6 -7 -9 -8 -2 1 1 -7 -13 -12 -6 -7 -5 -6 -7 -6 -3 -7 -10 -7 -7 -2 -1 -2 -2 1 -1 -3 -2 -1 -0 2 3 0
3 4 5 4 5 6 8 8 6 7 6 4 -2 -1 -4 -6 -1 2 2 -1 -11 -11 -10 -10 -8 -6 -7 -8 -7 -8 -7 -7 -8 -7 -4 -2 -2 -0 3 -3 -4 -3 -2 -2 -1 1 -0
4 3 5 5 5 7 7 7 6 3 6 2 -1 -2 -5 -3 1 1 -1 -6 -11 -9 -8 -7 -8 -7 -7 -7 -6 -7 -8 -8 -7 -6 -4 -4 -3 -2 1 -2 -3 -1 -1 -1 -2 -2 -1
3 3 5 6 6 6 7 4 6 6 5 2 -2 -1 -2 -0 1 -1 -1 -5 -7 -11 -9 -10 -8 -8 -6 -6 -7 -7 -6 -7 -7 -7 -7 -4 -1 -2 -2 -1 -1 -3 -1 -1 -1 -1 -3
4 4 6 4 5 6 7 3 5 5 5 1 -1 -2 -3 -1 -0 0 -5 -7 -7 -6 -9 -10 -7 -6 -5 -5 -6 -6 -8 -5 -7 -7 -5 -2 -1 0 -0 -2 -2 -2 -1 -1 -3 -1 -3
5 4 5 5 6 7 5 5 4 3 3 2 -2 -4 -3 -3 -2 -0 -2 -5 -7 -8 -6 -6 -5 -3 -4 -3 -3 -3 -6 -5 -4 -7 -6 -4 -3 -2 -2 -2 -4 -2 -3 -3 -2 -2 -4
5 5 5 5 6 7 3 5 5 5 3 2 -4 -7 -5 -3 -2 -2 -3 -6 -6 -7 -8 -9 -6 -4 -4 -6 -7 -8 -7 -6 -6 -6 -5 -4 -2 -2 -2 -1 -1 1 -3 -3 -2 -3 -4
5 6 5 5 5 6 6 5 5 3 2 2 -2 -4 -4 -2 -2 -4 -5 -8 -6 -6 -5 -8 -8 -5 -7 -6 -7 -7 -7 -7 -6 -6 -6 -4 -3 -2 -0 -1 2 -1 -3 -3 -2 -4 -3
5 6 5 5 6 6 6 5 4 2 2 2 -5 -5 -5 -1 -5 -6 -6 -6 -8 -8 -6 -7 -5 -5 -6 -7 -3 -3 -2 -3 -4 -5 -6 -8 -3 -2 -2 0 -3 -2 -1 -2 -1 -1 -1
6 5 5 5 6 6 5 3 1 3 3 3 -1 -5 -5 -4 -4 -9 -7 -7 -4 -4 -5 -4 -4 -5 -6 -3 -1 -1 1 -2 -3 -5 -9 -6 -4 -3 -2 -1 1 -7 -11 -9 -4 -1 -3
6 6 5 5 6 5 4 1 3 3 1 -3 -5 -5 -6 -6 -7 -9 -5 -5 -7 -4 -2 -5 -4 -4 -2 -1 -0 0 -3 -8 -4 -9 -9 -5 -4 -5 -5 -6 -4 -9 -10 -11 -3 -3 -7
6 5 5 5 6 5 3 2 1 -2 -3 -5 -8 -5 -7 -8 -8 -8 -8 -7 -6 -6 -2 -5 -2 -3 -2 -1 -1 -2 -1 -2 -7 -8 -11 -6 -5 -4 -4 -6 -5 -10 -9 -7 -6 -10 -8
6 5 5 5 5 1 2 2 -1 -2 -3 -7 -5 -5 -8 -7 -3 -7 -6 -6 -5 -5 -5 -5 -2 -2 -1 -0 -2 -2 -3 -3 -4 -4 -9 -4 -4 -3 -5 -4 -5 -9 -9 -10 -8 -9 -8

GFSGBSN_850_dewp_252.txt.gz
Dewpoint
10 10 10 7 8 8 8 8 6 5 5 4 4 4 3 4 3 1 -1 -3 -2 -1 1 4 5 4 2 1 -2 -3 -4 -5 -8 -12 -10 -10 -10 -11 -8 -10 -9 -8 -8 -8 -8 -8 -9
9 9 10 8 8 8 8 9 7 5 5 4 4 3 3 4 3 1 -2 -2 -1 -1 1 5 5 3 1 -2 -4 -4 -4 -6 -12 -15 -15 -11 -11 -13 -13 -11 -9 -9 -8 -8 -7 -7 -11
7 9 10 9 7 8 8 8 8 7 6 5 4 5 4 3 3 1 -1 -2 0 2 2 3 4 2 -1 -3 -4 -6 -8 -12 -12 -14 -15 -16 -12 -13 -13 -10 -11 -9 -6 -6 -6 -15 -15
7 9 9 10 4 8 8 8 8 8 7 5 5 5 5 4 2 1 -0 2 1 4 3 4 1 -4 -4 -6 -9 -10 -13 -12 -12 -15 -13 -12 -12 -12 -12 -11 -9 -6 -5 -4 -13 -14 -14
6 7 8 9 9 7 8 8 8 9 7 6 6 5 5 4 2 -0 0 3 2 5 3 -2 -5 -4 -6 -8 -11 -11 -11 -12 -15 -15 -13 -12 -12 -12 -11 -9 -5 -6 -9 -12 -12 -14 -12
4 6 7 9 9 5 8 6 9 8 8 6 6 5 6 4 2 -0 3 3 5 2 -3 -3 -6 -4 -9 -11 -13 -12 -15 -15 -13 -14 -12 -12 -11 -9 -8 -8 -6 -10 -10 -10 -9 -12 -10
6 5 6 9 9 5 3 7 8 8 8 6 6 6 6 4 1 1 4 5 2 -3 -8 -9 -11 -12 -11 -13 -11 -15 -15 -17 -15 -11 -8 -10 -9 -8 -9 -11 -10 -9 -9 -8 -9 -10 -9
6 6 5 7 9 9 7 8 7 8 8 8 6 6 6 3 1 3 5 4 1 -2 -2 -6 -9 -12 -13 -14 -14 -14 -16 -13 -12 -7 -9 -7 -6 -9 -10 -10 -8 -7 -7 -7 -8 -8 -6
5 6 5 6 8 9 9 8 7 8 8 8 7 6 6 2 2 4 4 4 4 0 -8 -6 -8 -11 -12 -14 -13 -12 -12 -11 -11 -6 -7 -7 -8 -10 -7 -5 -4 -5 -3 -1 -1 -3 -4
5 5 6 5 6 9 10 8 8 7 7 8 8 7 5 2 3 4 5 4 -1 -17 -1 -3 -8 -10 -14 -14 -11 -10 -11 -10 -8 -7 -8 -8 -9 -6 -3 -3 -4 -2 -3 -2 -1 0 2
4 4 5 6 5 9 9 9 8 7 7 8 8 7 4 3 2 4 3 2 -10 -14 0 -3 -11 -12 -14 -15 -14 -11 -13 -11 -8 -9 -10 -6 -6 -3 -1 -2 -4 -3 -3 -2 -1 1 -0
3 3 4 6 5 5 8 9 8 7 7 9 8 6 3 2 4 3 1 -10 -13 1 -0 -7 -12 -11 -12 -14 -13 -9 -12 -11 -8 -6 -5 -5 -7 -5 -4 -4 -4 -3 -2 -1 1 0 -1
3 3 3 5 5 4 8 9 7 8 7 9 8 5 2 4 3 2 -14 -12 2 1 -2 -9 -11 -12 -10 -10 -9 -7 -6 -5 -3 -7 -2 -4 -6 -7 -6 -2 -3 -2 -0 -4 -3 2 0
2 3 3 5 5 4 8 9 9 8 8 8 6 4 6 4 2 -8 -14 2 2 2 2 -11 -12 -10 -8 -8 -8 -9 -8 -5 -6 -3 -1 -2 -6 -5 -5 -1 -2 -0 -0 -4 -3 -1 2
3 3 4 5 5 4 6 9 8 7 8 7 5 6 4 0 -12 -19 -3 2 2 2 -5 -12 -13 -9 -7 -7 -8 -7 -7 -4 -5 -4 -5 -4 -4 -5 -3 -3 -3 -1 -1 -2 -1 2 -3
2 4 3 5 5 4 6 8 8 8 8 6 5 3 -2 -12 -16 -9 1 2 1 -8 -12 -11 -8 -7 -6 -6 -7 -5 -7 -7 -5 -5 -5 -5 -5 -5 -2 -5 -5 -2 -2 -0 0 1 -3
2 4 4 5 4 4 6 7 9 8 7 4 4 -3 -8 -10 -5 -1 2 1 -1 -12 -13 -8 -8 -6 -6 -7 -5 -5 -8 -7 -7 -3 -3 -3 -6 -4 -1 -2 -5 -4 -4 0 1 1 -3
1 5 5 5 5 4 6 8 8 7 5 4 2 -2 -8 -2 -2 1 2 -0 -8 -10 -11 -8 -8 -7 -7 -7 -7 -7 -5 -5 -7 -6 -3 -2 -5 -1 2 -2 -4 -3 -5 -6 -3 -2 -3
1 5 5 4 4 3 6 7 7 6 2 3 -1 -3 -4 -3 0 -1 -1 -2 -10 -9 -9 -7 -6 -7 -8 -8 -6 -6 -5 -7 -7 -6 -5 -4 -4 -5 -1 -3 -5 -1 -1 -2 -6 -7 -5
2 5 6 3 4 5 6 7 7 5 3 1 -3 -2 -4 -2 1 -1 -2 -6 -8 -10 -9 -9 -6 -8 -7 -7 -7 -5 -5 -7 -8 -7 -5 -3 -3 -4 -2 -2 -3 -3 -1 -2 -5 -5 -5
6 4 6 4 6 6 6 7 6 4 2 -0 -2 -3 -5 -2 -0 -0 -3 -5 -6 -6 -8 -10 -7 -6 -6 -5 -7 -6 -5 -5 -7 -6 -3 -3 -2 -1 -1 -1 -3 -2 -1 -2 -5 -4 -6
6 4 6 4 6 5 6 6 6 4 3 -1 -2 -2 -3 -2 -1 -0 -1 -5 -7 -6 -6 -6 -6 -4 -6 -5 -5 -4 -5 -5 -4 -6 -4 -3 -2 -3 -3 -0 -3 -2 -2 -3 -3 -3 -6
5 4 5 5 5 5 4 6 6 5 2 -0 -3 -3 -3 -1 -1 -1 -2 -5 -7 -7 -8 -9 -4 -4 -5 -4 -7 -6 -6 -7 -7 -6 -5 -4 -3 -2 -0 1 -0 1 -2 -2 -4 -4 -5
5 5 4 4 5 5 6 6 6 4 2 1 -2 -3 -3 -1 -2 -2 -4 -8 -5 -7 -5 -5 -7 -6 -7 -6 -7 -8 -8 -7 -6 -5 -5 -4 -4 -2 -0 1 0 -3 -4 -4 -4 -3 -2
4 4 5 5 5 5 5 6 4 4 3 1 -1 -1 -1 -2 -3 -3 -6 -6 -8 -8 -6 -6 -6 -9 -6 -8 -4 -4 -3 -4 -4 -5 -4 -4 -4 -3 -3 0 -3 -0 -1 -2 -1 -2 -2
4 5 5 5 5 5 6 5 5 4 3 2 -1 -1 -2 -3 -2 -5 -6 -6 -5 -4 -3 -3 -6 -7 -9 -4 -2 -1 0 -2 -2 -4 -6 -5 -5 -5 -2 -2 -0 -4 -11 -6 -5 -2 -6
5 4 5 5 5 5 5 6 5 4 2 1 -1 -1 -4 -6 -5 -7 -6 -6 -8 -4 -3 -3 -4 -4 -4 -3 -1 -1 -1 -6 -5 -5 -5 -4 -4 -7 -8 -7 -4 -9 -10 -7 -2 -5 -7
5 5 6 5 5 5 5 5 3 2 -0 1 -0 -4 -8 -6 -6 -8 -8 -8 -7 -6 -3 -5 -4 -3 -2 -2 -2 -2 -3 -4 -7 -8 -9 -7 -5 -6 -5 -7 -6 -9 -9 -8 -8 -10 -9
3 5 5 5 4 5 5 3 2 1 3 3 -0 -4 -8 -7 -3 -7 -8 -9 -8 -8 -6 -5 -7 -3 -2 -3 -3 -3 -3 -5 -5 -4 -8 -6 -6 -4 -5 -6 -8 -9 -10 -10 -10 -9 -9

GFSGBSN_850_dewp_255.txt.gz
Dewpoint
9 10 9 8 8 8 8 8 8 5 5 4 4 3 3 3 3 2 0 -2 -2 -3 -2 -1 0 -0 -2 -0 -3 -4 -4 -4 -5 -13 -15 -12 -10 -13 -10 -10 -11 -9 -9 -9 -8 -9 -11
5 9 10 10 8 8 8 8 8 6 5 4 3 3 3 3 3 2 -0 -1 -1 -2 -0 -0 -0 0 1 -1 -4 -4 -5 -7 -12 -13 -14 -17 -13 -12 -13 -12 -11 -11 -9 -8 -12 -12 -10
5 6 8 9 9 8 8 8 8 8 6 5 4 4 4 4 3 2 -1 -1 1 0 0 2 1 2 -0 -3 -5 -8 -10 -12 -13 -15 -14 -14 -14 -13 -13 -11 -11 -10 -7 -7 -15 -14 -14
6 5 7 9 9 7 8 7 8 8 6 5 5 4 4 4 3 1 0 -1 1 -0 1 1 1 -2 -4 -7 -10 -11 -12 -12 -14 -15 -14 -13 -12 -12 -12 -11 -10 -7 -8 -11 -14 -13 -11
6 5 5 9 10 8 7 7 8 8 8 6 5 5 4 4 3 2 -0 1 -0 1 3 0 -3 -3 -6 -8 -12 -12 -15 -14 -16 -16 -12 -12 -12 -12 -11 -8 -6 -11 -11 -10 -10 -12 -7
7 6 6 9 9 8 8 7 8 8 8 7 6 5 5 5 4 1 0 0 2 2 -1 -3 -6 -5 -9 -12 -13 -14 -14 -15 -14 -14 -13 -12 -11 -9 -9 -9 -7 -9 -9 -10 -9 -8 -4
6 6 7 7 8 9 5 6 8 9 8 8 6 5 5 5 3 0 -0 3 1 -4 -7 -9 -12 -11 -12 -13 -12 -15 -16 -15 -13 -11 -9 -10 -8 -7 -8 -10 -10 -9 -9 -8 -9 -7 -3
6 6 5 6 8 9 5 5 8 7 8 8 6 5 5 5 3 0 2 3 1 -2 -2 -7 -10 -12 -12 -14 -13 -14 -15 -12 -9 -7 -9 -7 -6 -8 -8 -5 -5 -6 -6 -5 -4 -5 -3
6 6 6 5 6 9 6 5 7 8 8 8 7 6 6 5 2 1 3 3 2 3 -8 -6 -9 -11 -12 -13 -12 -11 -12 -10 -8 -7 -7 -8 -9 -7 -4 -3 -3 -5 -2 -1 -1 -3 -4
5 6 5 4 5 9 7 7 8 8 8 8 8 6 6 4 3 3 3 3 3 -5 -2 -4 -8 -11 -14 -12 -11 -13 -13 -10 -9 -9 -9 -8 -7 -4 -3 -3 -3 -3 -5 -2 -1 0 1
6 5 6 5 5 8 8 6 7 7 8 8 8 7 6 4 2 3 1 3 -5 -8 -1 -4 -11 -13 -14 -14 -13 -10 -14 -11 -9 -7 -7 -4 -3 -3 -2 -2 -3 -4 -3 -2 -1 1 -2
5 5 6 6 5 6 9 7 7 7 8 8 8 7 6 3 2 1 2 0 -9 1 1 -8 -13 -12 -13 -13 -11 -12 -10 -10 -8 -6 -6 -6 -7 -6 -5 -4 -4 -3 -2 -4 -0 -2 -2
4 4 5 6 5 5 7 9 8 7 8 7 8 7 5 3 2 2 1 -11 2 1 -4 -10 -11 -12 -10 -9 -7 -8 -6 -5 -4 -10 -3 -5 -8 -7 -4 -2 -4 -2 -2 -6 -4 -2 -2
4 3 5 5 5 5 5 9 9 8 7 8 8 7 5 3 2 1 -14 1 -0 -0 0 -12 -11 -9 -9 -8 -8 -9 -8 -6 -7 -4 -2 -5 -4 -5 -6 -2 -3 -1 -2 -5 -5 -2 1
2 2 3 4 5 5 5 8 9 6 8 8 8 6 4 3 2 -12 -3 0 1 1 -6 -11 -11 -8 -7 -8 -7 -8 -8 -4 -5 -5 -6 -7 -5 -5 -4 -4 -4 -2 -1 -2 -3 -1 -5
3 2 3 3 4 5 6 7 9 8 8 8 6 4 3 1 -6 -13 1 1 1 -2 -11 -12 -8 -7 -5 -6 -9 -7 -8 -9 -6 -5 -6 -6 -8 -5 -1 -5 -5 -3 -3 -1 -3 -2 -5
2 2 2 2 3 6 5 6 9 8 8 7 5 1 -1 -9 -15 -5 1 1 0 -10 -12 -10 -8 -5 -6 -5 -6 -6 -7 -7 -7 -2 -4 -5 -7 -4 -4 -4 -6 -4 -4 -3 -4 -3 -5
1 2 2 3 4 6 6 7 8 8 7 6 2 -3 -8 -11 -3 -1 -1 -2 -6 -10 -10 -8 -8 -7 -7 -7 -5 -5 -6 -7 -7 -4 -3 -3 -6 -2 -0 -1 -2 -4 -6 -8 -6 -6 -9
1 2 3 4 4 6 6 7 8 8 7 4 -3 -4 -6 -5 -0 -1 -2 -2 -9 -10 -9 -8 -7 -8 -9 -7 -6 -6 -5 -7 -7 -6 -5 -2 -5 -5 -3 -5 -5 -1 -2 -3 -10 -11 -8
2 2 3 4 5 5 5 7 7 8 6 2 -3 -3 -4 -2 -1 -2 -2 -5 -8 -9 -8 -8 -6 -8 -7 -7 -7 -5 -5 -7 -7 -5 -5 -4 -4 -5 -3 -3 -3 -5 -2 -3 -7 -8 -10
2 2 4 5 6 5 4 5 8 6 5 2 -2 -3 -3 -0 0 -2 -5 -6 -6 -7 -8 -9 -7 -7 -6 -6 -6 -6 -5 -5 -7 -3 -3 -4 -4 -2 -2 -2 -2 -3 -2 -2 -6 -6 -7
2 2 4 5 6 4 4 5 7 7 3 1 -4 -4 -4 -2 -1 -1 -3 -5 -7 -6 -7 -7 -6 -5 -7 -6 -6 -4 -5 -5 -5 -6 -4 -3 -3 -3 -3 -1 -3 -2 -3 -3 -3 -4 -7
1 2 5 6 6 5 3 5 7 5 3 0 -3 -4 -3 -1 -1 -1 -2 -5 -6 -6 -7 -9 -6 -5 -5 -6 -7 -8 -7 -6 -7 -6 -5 -4 -3 -2 -1 1 -0 -2 -4 -2 -4 -5 -6
0 3 5 6 5 5 3 5 6 5 2 1 -2 -3 -2 -1 -1 -1 -3 -7 -5 -6 -5 -5 -8 -7 -7 -7 -7 -8 -8 -7 -7 -6 -6 -4 -4 -3 1 -0 -2 -4 -5 -4 -4 -5 -4
0 5 5 5 2 4 4 6 6 5 4 -0 -2 -3 -3 -2 -1 -3 -5 -6 -7 -7 -5 -5 -8 -9 -7 -9 -4 -4 -3 -4 -5 -6 -4 -5 -4 -3 -4 -0 -3 -2 -2 -3 -2 -3 -3
1 5 5 4 3 4 4 6 6 3 1 -1 -1 -2 -2 -2 -2 -3 -6 -7 -4 -3 -3 -4 -8 -7 -8 -3 -2 -2 -1 -3 -2 -4 -5 -4 -5 -5 -3 -3 -2 -5 -9 -5 -4 -3 -5
5 4 6 4 2 5 5 6 6 3 2 2 -1 -1 -1 -5 -3 -5 -6 -6 -7 -4 -3 -3 -5 -4 -7 -3 -2 -1 -1 -4 -2 -2 -3 -3 -4 -6 -9 -7 -5 -6 -10 -5 -3 -7 -9
5 4 5 5 5 5 5 4 6 4 3 2 -2 -1 -1 -6 -3 -5 -8 -8 -6 -6 -3 -4 -4 -4 -3 -2 -3 -3 -4 -5 -6 -8 -6 -5 -5 -6 -6 -8 -6 -9 -9 -8 -8 -11 -10
5 4 5 4 5 5 5 4 5 4 2 1 0 -1 -5 -7 -5 -6 -8 -9 -10 -9 -6 -5 -7 -4 -3 -4 -4 -4 -3 -5 -6 -6 -9 -7 -7 -6 -5 -5 -9 -10 -11 -10 -10 -10 -10